OE-11099 Weather Reports


Display with metric or nautical units.
time (UTC)temp
F
wind
direction
speed
MPH
gust
MPH
rain 1hr
in
rain 24hr
in
rain mn
in
humidity
%
barometer
mb
20260902210506 67 149 2.0 7.0 0.00 0.00 0.00 62 1021.7
20260902205506 66 176 2.0 5.0 0.00 0.00 0.00 64 1021.7
20260902204120 67 127 1.0 6.0 0.00 0.00 0.00 61 1021.3
20260902203505 68 104 3.0 7.0 0.00 0.00 0.00 60 1021.3
20260902202506 68 113 5.0 11.0 0.00 0.00 0.00 59 1021.2
20260902201119 68 133 3.0 7.0 0.00 0.00 0.00 58 1021.2
20260902200506 68 142 4.0 7.0 0.00 0.00 0.00 60 1021.3
20260902195506 68 137 4.0 8.0 0.00 0.00 0.00 60 1021.3
20260902194119 68 138 4.0 9.0 0.00 0.00 0.00 59 1021.2
20260902193506 68 157 1.0 4.0 0.00 0.00 0.00 60 1021.2
20260902192506 67 82 1.0 3.0 0.00 0.00 0.00 62 1021.1
20260902191119 68 82 1.0 3.0 0.00 0.00 0.00 66 1020.9
20260902190505 68 60 1.0 2.0 0.00 0.00 0.00 61 1020.6
20260902185506 69 75 1.0 3.0 0.00 0.00 0.00 60 1020.5
20260902184119 70 360 0.0 2.0 0.00 0.00 0.00 55 1020.2
20260902183506 71 35 1.0 3.0 0.00 0.00 0.00 56 1020.1
20260902182506 71 346 2.0 5.0 0.00 0.00 0.00 55 1019.9
20260902181119 72 355 1.0 3.0 0.00 0.00 0.00 50 1019.5
20260902180506 73 334 1.0 5.0 0.00 0.00 0.00 47 1019.4
20260902175506 74 337 2.0 5.0 0.00 0.00 0.00 47 1019.2
20260902174119 74 336 2.0 6.0 0.00 0.00 0.00 46 1019.1
20260902173505 74 321 1.0 5.0 0.00 0.00 0.00 45 1018.9
20260902172506 75 304 2.0 6.0 0.00 0.00 0.00 44 1018.7
20260902171119 75 287 2.0 11.0 0.00 0.00 0.00 44 1018.6
20260902170506 76 325 1.0 4.0 0.00 0.00 0.00 44 1018.5
20260902165506 76 287 2.0 11.0 0.00 0.00 0.00 42 1018.3
20260902164119 76 288 2.0 10.0 0.00 0.00 0.00 40 1018.2
20260902163506 77 297 2.0 9.0 0.00 0.00 0.00 39 1018.1
20260902162506 79 294 2.0 10.0 0.00 0.00 0.00 38 1017.8
20260902161119 79 256 3.0 8.0 0.00 0.00 0.00 37 1017.8
20260902160505 78 271 3.0 14.0 0.00 0.00 0.00 37 1017.6
20260902155506 79 278 3.0 10.0 0.00 0.00 0.00 35 1017.5
20260902154119 79 283 3.0 12.0 0.00 0.00 0.00 36 1017.5
20260902153506 79 319 3.0 12.0 0.00 0.00 0.00 39 1017.6
20260902152505 79 287 3.0 11.0 0.00 0.00 0.00 40 1017.6
20260902151119 78 279 3.0 10.0 0.00 0.00 0.00 38 1017.6
20260902150506 79 281 3.0 8.0 0.00 0.00 0.00 37 1017.6
20260902145506 80 290 2.0 7.0 0.00 0.00 0.00 37 1017.5
20260902144119 80 289 3.0 13.0 0.00 0.00 0.00 37 1017.5
20260902143505 79 306 2.0 8.0 0.00 0.00 0.00 38 1017.7
20260902142506 80 276 3.0 9.0 0.00 0.00 0.00 38 1017.7
20260902141119 79 311 2.0 6.0 0.00 0.00 0.00 39 1017.9
20260902140506 80 276 4.0 11.0 0.00 0.00 0.00 36 1017.9
20260902135506 79 286 2.0 9.0 0.00 0.00 0.00 37 1018.0
20260902134117 80 288 3.0 11.0 0.00 0.00 0.00 39 1017.9
20260902133506 78 275 3.0 10.0 0.00 0.00 0.00 33 1018.2
20260902132506 79 281 4.0 10.0 0.00 0.00 0.00 38 1018.2
20260902131119 79 284 3.0 8.0 0.00 0.00 0.00 35 1018.3
20260902130506 78 272 4.0 12.0 0.00 0.00 0.00 32 1018.3
20260902125506 78 300 2.0 7.0 0.00 0.00 0.00 38 1018.4
20260902124118 77 293 3.0 12.0 0.00 0.00 0.00 39 1018.6
20260902123506 79 308 3.0 9.0 0.00 0.00 0.00 38 1018.5
20260902122506 80 326 2.0 9.0 0.00 0.00 0.00 38 1018.5
20260902121119 79 340 3.0 12.0 0.00 0.00 0.00 41 1018.7
20260902120505 80 330 3.0 13.0 0.00 0.00 0.00 43 1018.6
20260902115505 78 342 2.0 8.0 0.00 0.00 0.00 44 1019.0
20260902114119 76 266 4.0 11.0 0.00 0.00 0.00 47 1019.4
20260902113506 76 263 4.0 11.0 0.00 0.00 0.00 49 1019.5
20260902112506 74 275 3.0 9.0 0.00 0.00 0.00 50 1019.8
20260902111119 74 300 3.0 12.0 0.00 0.00 0.00 52 1019.7
20260902110506 76 321 2.0 8.0 0.00 0.00 0.00 54 1019.4
20260902105505 73 292 3.0 9.0 0.00 0.00 0.00 56 1019.8
20260902104119 73 323 2.0 9.0 0.00 0.00 0.00 56 1020.0
20260902103506 74 328 2.0 8.0 0.00 0.00 0.00 55 1019.8
20260902102505 73 323 2.0 6.0 0.00 0.00 0.00 54 1019.9
20260902101119 72 288 1.0 4.0 0.00 0.00 0.00 52 1020.0
20260902100506 72 218 2.0 6.0 0.00 0.00 0.00 53 1020.0
20260902095506 71 233 2.0 6.0 0.00 0.00 0.00 56 1020.2
20260902094119 70 271 1.0 3.0 0.00 0.00 0.00 57 1020.4
20260902093506 70 347 1.0 3.0 0.00 0.00 0.00 58 1020.4
20260902092505 70 332 2.0 4.0 0.00 0.00 0.00 59 1020.6
20260902091118 70 335 1.0 4.0 0.00 0.00 0.00 63 1020.7
20260902090506 69 319 1.0 4.0 0.00 0.00 0.00 59 1020.8
20260902084118 69 218 1.0 4.0 0.00 0.00 0.00 58 1020.8
20260902083506 69 359 1.0 3.0 0.00 0.00 0.00 60 1020.7
20260902082506 67 57 2.0 4.0 0.00 0.00 0.00 64 1020.8
20260902081118 67 62 2.0 3.0 0.00 0.00 0.00 67 1020.9
20260902080505 66 43 2.0 4.0 0.00 0.00 0.00 67 1021.0
20260902075506 66 48 1.0 4.0 0.00 0.00 0.00 69 1021.0
20260902074119 65 65 2.0 4.0 0.00 0.00 0.00 70 1021.1
20260902073505 64 72 2.0 3.0 0.00 0.00 0.00 72 1021.2
20260902072506 63 41 1.0 3.0 0.00 0.00 0.00 73 1021.5
20260902071319 61 57 2.0 4.0 0.00 0.00 0.00 78 1021.8
20260902070505 61 30 1.0 3.0 0.00 0.00 0.00 78 1022.0
20260902065505 60 59 1.0 4.0 0.00 0.00 0.00 81 1022.0
20260902064119 60 147 0.0 4.0 0.00 0.00 0.00 79 1021.9
20260902062506 59 110 2.0 4.0 0.00 0.00 0.00 80 1022.1
20260902061119 57 71 1.0 3.0 0.00 0.00 0.00 86 1022.5
20260902060506 56 116 2.0 7.0 0.00 0.00 0.00 87 1022.6
20260902055506 56 139 2.0 6.0 0.00 0.00 0.00 86 1022.5
20260902054119 55 131 2.0 5.0 0.00 0.00 0.00 88 1022.6
20260902053506 55 154 3.0 6.0 0.00 0.00 0.00 87 1022.5
20260902052505 55 229 0.0 3.0 0.00 0.00 0.00 90 1022.6
20260902051119 54 118 0.0 2.0 0.00 0.00 0.00 91 1022.5
20260902050505 54 74 2.0 4.0 0.00 0.00 0.00 91 1022.6
20260902045505 54 88 2.0 2.0 0.00 0.00 0.00 91 1022.5
20260902044119 54 101 1.0 2.0 0.00 0.00 0.00 91 1022.5
20260902043506 55 113 1.0 2.0 0.00 0.00 0.00 89 1022.3
20260902042506 55 149 2.0 4.0 0.00 0.00 0.00 88 1022.2
20260902041119 55 166 1.0 3.0 0.00 0.00 0.00 90 1022.2
20260902040505 55 36 1.0 2.0 0.00 0.00 0.00 90 1022.2
20260902035506 55 126 1.0 3.0 0.00 0.00 0.00 88 1022.1
20260902034506 56 124 1.0 5.0 0.00 0.00 0.00 88 1022.1
20260902033505 56 144 2.0 6.0 0.00 0.00 0.00 86 1022.0
20260902032505 55 186 0.0 2.0 0.00 0.00 0.00 88 1022.1
20260902031505 56 137 1.0 4.0 0.00 0.00 0.00 87 1022.2
20260902030506 56 195 1.0 3.0 0.00 0.00 0.00 86 1022.1
20260902025505 56 112 2.0 6.0 0.00 0.00 0.00 88 1022.3
20260902024506 56 126 2.0 4.0 0.00 0.00 0.00 87 1022.3
20260902023506 56 191 1.0 4.0 0.00 0.00 0.00 86 1022.2
20260902022505 56 172 1.0 4.0 0.00 0.00 0.00 86 1022.2
20260902021505 56 150 1.0 3.0 0.00 0.00 0.00 88 1022.3
20260902015506 56 75 1.0 3.0 0.00 0.00 0.00 87 1022.2
20260902014506 57 83 2.0 3.0 0.00 0.00 0.00 87 1022.3
20260902013505 57 113 1.0 3.0 0.00 0.00 0.00 86 1022.3
20260902012506 57 112 1.0 2.0 0.00 0.00 0.00 86 1022.2
20260902011505 58 139 1.0 3.0 0.00 0.00 0.00 86 1022.2
20260902010506 58 111 1.0 2.0 0.00 0.00 0.00 85 1022.2
20260902005505 58 113 2.0 6.0 0.00 0.00 0.00 84 1022.1
20260901221119 61 113 3.0 6.0 0.00 0.00 0.00 77 1022.1
20260901220506 61 134 3.0 7.0 0.00 0.00 0.00 78 1022.1
20260901215506 60 174 1.0 3.0 0.00 0.00 0.00 82 1022.5
20260901214119 60 100 1.0 2.0 0.00 0.00 0.00 82 1022.5
20260901213506 60 133 1.0 4.0 0.00 0.00 0.00 80 1022.4
20260901212506 61 157 1.0 3.0 0.00 0.00 0.00 80 1022.1
20260901211119 61 100 0.0 2.0 0.00 0.00 0.00 80 1022.1